Temperature
20 20 20 20 20 19 19 19 19 19 19 19 19 19 19 19 19 19 19 19 19 19 19 19 19 19 18 18 19 19 19 19 19 19 19 19 19 18 18 18 18 18 18
20 20 20 20 19 19 19 19 19 19 19 19 19 19 19 19 19 19 19 19 19 19 19 19 18 18 18 18 19 19 19 19 19 19 19 18 18 18 18 18 18 18 18
20 20 20 20 19 19 19 19 19 19 19 19 19 19 19 19 19 19 19 19 19 18 18 18 18 18 18 18 18 19 19 18 18 18 18 18 18 18 18 18 18 18 18
20 20 20 20 19 19 19 19 19 19 19 19 19 19 19 19 19 19 19 19 18 18 18 18 18 18 18 18 18 18 18 18 18 18 18 18 18 18 18 18 18 18 18
20 20 20 20 20 19 19 19 19 19 19 19 19 19 19 19 19 19 19 19 18 18 18 18 18 18 18 18 18 18 18 18 18 18 18 18 18 18 18 18 18 18 17
20 20 20 20 20 20 19 19 19 19 19 19 19 19 19 19 19 19 19 19 19 19 18 18 18 18 18 18 18 18 18 18 18 18 18 18 18 18 18 18 18 18 18
20 20 20 20 20 20 19 19 19 19 19 19 19 19 19 19 19 19 19 19 19 19 19 18 18 18 18 18 18 18 19 18 18 18 18 18 18 18 18 18 18 18 18
21 20 20 20 20 20 20 19 19 19 19 19 19 19 19 19 19 19 19 19 19 19 19 19 18 18 18 18 19 19 19 19 18 18 18 18 18 18 18 18 18 18 17
21 20 20 20 20 20 20 20 19 19 19 19 19 19 19 19 19 19 19 19 19 19 19 19 19 19 19 19 19 19 19 19 19 18 18 18 18 18 18 18 18 18 17
21 21 20 20 20 20 20 20 19 19 19 19 19 19 19 19 19 19 19 19 19 19 19 19 19 19 19 19 19 19 19 19 19 19 19 19 18 18 18 18 18 18 17
22 21 21 20 20 20 20 20 20 19 19 19 19 19 19 19 19 19 19 19 19 19 19 19 19 19 19 19 19 19 19 19 19 19 19 19 19 18 18 18 18 18 17
22 22 21 21 20 20 20 20 19 19 19 19 19 19 19 19 19 19 19 19 19 19 19 19 19 19 19 19 19 19 19 19 19 19 19 19 19 19 18 18 18 18 17
22 22 21 21 20 20 20 20 19 19 19 19 19 19 19 19 19 19 19 19 19 19 19 19 19 19 19 19 19 19 19 19 19 19 19 19 19 19 18 18 18 18 18
22 21 21 21 20 20 20 20 20 20 19 19 19 19 19 19 19 19 19 19 19 19 19 19 19 19 19 19 19 19 19 19 19 19 19 19 19 19 18 18 18 18 18
22 21 21 21 20 20 20 20 20 20 20 19 19 19 19 19 19 19 19 19 19 19 19 19 19 19 19 19 19 20 19 19 19 19 19 19 19 19 18 18 18 18 18
22 21 21 20 20 20 20 20 20 20 20 20 19 19 19 19 19 19 19 19 19 19 19 19 19 19 19 19 19 19 19 19 19 19 19 19 19 19 19 18 18 18 18
21 21 21 20 20 20 20 20 20 20 20 20 19 20 19 19 19 19 19 19 19 19 19 19 20 19 19 19 19 19 19 19 19 19 19 19 19 19 19 18 18 18 18
21 21 21 20 20 20 20 20 20 20 20 20 19 19 19 19 19 19 19 19 19 19 20 20 19 19 19 19 19 19 20 20 19 19 19 19 19 19 19 19 18 18 18
21 21 21 20 20 20 20 20 20 20 20 20 19 19 19 19 19 19 20 20 19 19 19 19 19 19 19 19 19 20 20 20 20 19 19 19 19 19 19 19 18 18 18
21 21 21 20 20 20 20 20 20 20 20 19 19 20 19 19 19 19 20 20 19 19 19 19 20 19 19 19 19 20 20 20 20 19 19 19 19 19 19 19 18 18 18
21 21 20 20 20 20 20 20 20 20 20 19 19 19 19 19 19 19 19 19 19 19 19 19 19 19 19 19 19 19 20 20 20 19 19 19 19 19 19 18 18 18 18
21 21 20 20 20 20 20 20 19 19 20 20 19 19 19 19 19 19 19 19 19 19 19 19 19 19 19 19 19 19 19 19 20 19 19 19 19 19 19 18 18 18 18
22 21 21 20 20 20 20 19 20 20 19 19 19 19 19 19 19 19 19 19 19 19 19 19 19 19 19 19 19 19 19 19 19 19 19 19 19 19 19 18 18 18 18
22 21 21 20 20 20 20 19 19 19 19 19 19 19 19 19 19 19 19 19 19 19 19 19 19 19 19 19 19 19 19 19 19 19 19 19 19 19 19 18 18 18 18
22 22 21 20 20 20 20 19 19 19 19 19 19 19 19 19 19 19 19 19 19 19 19 19 19 19 19 19 19 19 19 19 19 19 19 19 19 19 18 18 18 18 18
23 22 21 20 20 20 20 19 19 19 19 19 19 19 19 19 19 19 19 19 19 19 18 18 18 18 18 19 19 19 19 19 19 19 19 19 18 18 18 18 18 18 18
Wind_Speed
10 12 14 13 12 11 11 10 9 9 10 10 10 10 10 10 11 11 11 11 12 11 11 11 11 10 9 9 9 9 9 9 9 9 9 9 8 8 7 6 5 8 9
13 14 15 14 13 11 11 10 9 9 9 10 10 10 10 10 11 11 11 11 11 11 11 11 10 9 9 8 8 8 8 7 7 7 8 8 8 8 6 5 5 7 8
14 14 14 13 12 11 11 10 9 9 9 10 10 10 10 10 10 11 10 11 11 11 10 10 9 8 8 7 7 7 6 6 6 6 6 6 8 9 7 7 8 8 7
13 13 13 13 12 11 11 10 9 9 10 10 10 10 10 10 10 10 10 10 10 10 10 9 8 7 6 6 6 5 5 5 5 5 6 6 8 10 8 7 7 7 6
14 14 14 13 12 11 11 11 10 10 10 10 10 10 10 9 10 10 10 10 10 9 9 8 8 6 5 5 6 6 5 4 4 5 4 5 9 10 9 8 8 7 7
13 14 14 13 12 11 11 10 10 11 11 11 10 10 9 9 9 10 10 9 9 9 9 8 7 5 5 5 6 5 5 4 5 5 4 7 10 10 9 8 8 7 7
13 12 14 14 13 11 11 10 10 10 11 11 10 10 9 9 9 9 9 9 8 8 8 7 6 4 4 5 5 4 4 5 6 5 4 8 10 11 9 8 7 7 7
12 12 13 14 14 12 11 10 10 11 10 10 10 9 9 8 9 9 9 8 8 8 7 6 6 4 3 4 5 5 6 6 4 3 5 9 12 11 9 8 7 7 6
13 11 11 13 13 12 11 10 10 10 10 10 9 9 9 8 9 9 8 8 8 8 7 6 6 5 5 5 6 7 7 8 6 3 5 9 11 11 9 8 7 7 6
11 10 10 11 12 12 11 11 10 10 10 9 9 8 9 9 9 9 9 8 8 7 6 6 6 6 6 7 8 9 9 9 7 4 5 9 12 11 10 8 7 7 7
8 8 8 9 10 11 11 12 11 10 9 9 8 9 8 8 8 8 8 10 9 8 7 7 7 7 8 9 11 12 10 8 5 4 6 11 12 11 10 9 7 7 7
8 8 8 8 7 7 8 10 9 8 8 7 7 7 7 5 6 7 9 11 10 9 8 9 9 8 9 9 11 13 9 8 5 5 8 13 12 11 10 9 8 7 7
7 6 8 7 6 6 5 6 4 5 7 6 6 7 5 4 5 6 6 7 8 9 7 8 9 9 9 7 7 8 8 4 4 7 10 13 12 11 10 9 8 8 7
7 7 7 7 6 5 3 3 3 3 4 4 5 5 4 2 1 3 2 4 5 5 5 5 5 7 7 5 5 4 4 3 4 7 10 13 13 11 10 10 9 8 8
6 7 7 7 6 5 3 1 3 2 3 5 4 3 3 2 2 2 2 2 3 3 3 2 2 2 1 1 2 2 2 3 5 6 8 13 13 12 11 10 10 9 9
7 8 7 7 7 5 3 1 1 2 3 4 3 3 3 3 1 1 2 2 2 2 3 2 2 1 1 0 1 1 2 3 5 6 8 10 12 12 11 10 10 9 9
8 7 7 7 7 5 3 1 2 2 3 3 3 3 2 2 2 1 2 2 1 2 3 2 2 1 2 2 2 2 2 3 4 6 7 9 10 11 11 10 10 10 9
8 7 5 6 7 6 4 1 1 2 3 2 3 4 2 2 2 1 1 1 1 2 1 1 1 1 0 0 1 1 1 2 4 5 6 7 8 9 11 12 11 11 10
8 7 6 6 6 5 4 2 1 2 2 2 2 2 2 2 2 1 1 0 2 1 1 1 1 0 1 1 2 1 1 2 3 4 5 6 7 9 9 11 13 12 11
9 8 6 6 5 3 3 2 1 1 2 2 2 2 2 2 2 1 1 0 1 1 1 2 1 1 1 2 3 1 1 2 2 2 3 4 6 8 9 10 10 10 11
9 8 6 6 5 3 2 2 1 1 1 1 2 2 2 1 1 0 1 1 0 0 0 1 1 2 2 1 1 1 1 2 3 2 2 2 3 5 6 9 9 8 8
10 9 7 6 6 4 3 1 1 1 2 2 2 2 2 1 1 1 1 1 1 1 0 1 1 1 2 1 1 1 1 0 0 2 2 3 3 3 3 6 7 8 8
10 9 8 6 6 4 4 2 1 1 1 1 2 1 1 1 2 0 0 0 0 1 1 1 2 2 2 2 1 1 1 0 1 1 2 2 2 2 2 3 5 7 9
10 10 8 7 6 4 3 2 2 2 1 1 2 2 2 2 2 1 1 1 1 1 0 1 1 2 2 2 2 1 1 0 1 1 1 1 2 3 2 2 3 5 7
10 10 9 8 6 5 4 3 2 1 1 1 1 2 2 2 2 2 2 1 1 1 1 1 2 2 1 3 3 2 1 1 2 2 1 1 1 1 2 2 2 3 6
10 9 9 9 7 6 5 3 3 2 1 1 1 2 2 2 2 2 2 1 0 1 1 1 1 2 2 3 4 3 2 1 1 2 2 2 2 1 2 2 2 2 4
Wind_Direction
105 109 115 114 113 111 111 113 114 112 110 113 114 110 107 106 107 109 109 110 113 117 119 119 117 114 109 106 107 107 108 110 110 114 115 117 119 118 115 118 121 113 116
110 111 114 115 114 113 113 113 113 113 114 117 118 114 111 109 109 111 111 111 114 116 116 115 113 111 107 107 109 115 120 125 129 130 134 136 137 134 124 113 108 110 115
110 114 114 112 114 113 113 113 114 118 120 120 118 116 113 112 113 113 113 113 113 115 115 114 113 111 112 116 119 128 138 145 154 163 170 163 147 141 134 118 114 118 115
111 113 114 116 114 113 112 113 114 119 123 121 119 118 115 115 117 115 113 114 113 115 116 116 117 114 119 134 142 151 164 176 191 206 201 174 139 136 136 127 125 123 118
110 111 117 121 118 116 114 114 113 113 119 122 122 121 119 118 119 117 114 113 114 116 118 118 118 119 127 139 154 168 184 202 228 245 217 136 120 138 139 136 133 130 129
114 116 123 124 121 120 119 120 118 115 115 117 121 123 122 120 119 118 115 116 118 120 120 119 117 119 127 141 153 169 196 218 237 239 190 137 126 136 139 140 139 136 133
117 118 126 129 126 125 123 124 127 127 125 123 122 123 126 128 127 125 125 126 128 129 127 126 128 129 133 150 167 192 219 240 239 229 146 121 129 138 139 145 144 142 140
119 120 127 136 134 132 129 127 131 135 135 134 133 137 139 141 140 140 141 139 139 140 141 144 152 160 169 175 194 219 241 258 245 196 130 125 136 141 145 152 152 149 147
121 126 135 140 140 139 138 137 137 138 141 142 145 148 152 156 156 153 152 153 154 154 158 165 174 187 197 203 216 233 246 254 259 221 144 136 144 147 151 158 158 158 156
120 126 135 141 144 147 146 149 146 147 149 149 153 157 159 162 166 163 161 163 166 166 171 182 192 201 208 220 231 237 245 257 240 198 143 143 151 154 158 160 163 165 166
111 121 129 134 144 149 149 148 153 155 159 160 162 168 170 172 173 171 165 169 176 179 189 199 208 213 217 227 233 237 244 246 219 159 133 145 153 157 161 165 168 171 172
119 122 121 127 132 141 141 145 156 154 158 166 159 172 183 183 173 153 156 176 182 189 199 210 214 221 230 228 225 228 238 227 197 144 140 151 159 162 165 169 174 178 180
121 113 112 117 123 126 123 139 149 148 159 165 166 175 176 167 159 143 163 173 187 193 204 206 210 217 226 226 217 207 220 207 164 139 151 159 164 168 170 174 180 185 188
121 118 115 118 112 106 113 131 143 142 145 145 157 169 148 143 144 138 151 175 186 189 198 210 215 217 227 225 214 204 196 166 132 131 153 162 166 170 174 178 183 189 192
127 119 111 108 107 106 99 115 122 116 130 136 146 158 159 148 149 144 157 190 202 190 191 215 236 234 226 233 234 192 161 145 143 146 152 164 167 170 175 180 186 189 190
137 128 126 126 117 118 113 94 113 126 129 128 136 138 163 139 146 157 168 196 221 201 204 211 208 222 241 281 301 177 151 150 145 153 157 168 174 177 179 182 186 186 188
135 129 133 135 123 121 113 113 134 137 120 125 135 144 152 147 162 186 193 204 234 221 199 203 219 195 205 202 209 222 168 153 156 163 166 171 176 181 184 181 181 184 187
133 128 136 133 127 126 114 91 87 105 117 124 136 141 158 164 165 173 196 217 257 244 228 211 220 225 273 260 226 246 182 158 168 173 174 173 174 176 180 185 184 187 190
125 123 124 115 122 130 136 153 148 115 113 124 137 144 154 165 156 178 164 265 266 285 313 299 78 33 297 298 257 202 199 188 188 188 171 174 174 167 168 180 188 192 192
129 128 129 123 123 132 129 140 150 127 140 139 118 122 140 181 169 229 160 178 305 357 11 17 7 308 268 264 283 270 219 198 200 192 181 173 177 174 169 171 178 192 194
139 140 143 142 139 145 135 155 161 159 174 162 153 143 165 191 157 296 307 153 255 49 349 360 307 275 260 231 285 301 274 204 180 182 185 168 165 172 170 166 173 174 181
149 151 152 150 144 147 144 171 177 178 191 178 130 122 145 144 238 212 206 228 168 153 259 284 280 288 277 241 241 270 292 297 306 192 171 174 172 164 169 170 172 172 175
155 157 158 153 147 154 158 166 157 168 225 149 132 132 159 178 195 265 130 300 190 189 226 241 277 265 285 287 282 255 250 258 280 223 207 181 164 162 179 157 172 169 176
159 160 152 148 147 153 155 168 180 167 164 144 140 153 179 198 184 171 175 248 277 282 313 274 260 280 279 290 274 257 255 153 211 276 286 181 190 182 190 199 177 168 165
163 160 153 146 150 154 165 168 171 172 168 164 149 153 174 178 190 175 177 218 263 286 306 301 334 314 307 294 289 270 251 233 229 215 250 244 259 208 192 200 180 164 160
160 156 154 151 156 160 166 171 168 181 201 173 167 173 198 192 194 192 176 181 244 286 284 268 296 294 296 304 310 310 305 269 252 236 242 245 239 241 221 186 160 140 158
Height
1493 1493 1493 1494 1495 1496 1497 1499 1500 1501 1502 1504 1505 1506 1508 1509 1510 1512 1513 1514 1515 1516 1518 1519 1521 1523 1525 1526 1528 1529 1531 1532 1534 1535 1536 1537 1538 1539 1540 1541 1542 1543 1543
1494 1494 1495 1496 1497 1498 1499 1500 1501 1502 1503 1505 1506 1507 1509 1510 1512 1513 1514 1515 1516 1518 1519 1521 1522 1524 1525 1527 1528 1530 1531 1533 1534 1535 1537 1538 1539 1539 1540 1541 1542 1543 1544
1495 1495 1496 1497 1498 1499 1500 1501 1502 1503 1505 1506 1507 1509 1510 1512 1513 1514 1515 1517 1518 1519 1521 1522 1523 1524 1525 1527 1528 1530 1532 1533 1535 1536 1537 1538 1539 1540 1541 1542 1542 1543 1544
1496 1497 1498 1499 1500 1501 1502 1503 1503 1504 1505 1507 1509 1510 1512 1513 1514 1515 1517 1518 1519 1521 1522 1523 1524 1525 1525 1526 1528 1530 1532 1534 1535 1536 1537 1539 1540 1540 1541 1542 1542 1543 1544
1498 1498 1499 1500 1501 1502 1503 1504 1505 1506 1507 1509 1510 1512 1513 1514 1516 1517 1518 1519 1521 1522 1523 1524 1525 1525 1525 1525 1527 1529 1532 1534 1535 1536 1538 1539 1540 1541 1541 1542 1542 1543 1544
1499 1500 1500 1502 1503 1504 1505 1506 1507 1508 1509 1510 1512 1513 1515 1516 1517 1518 1519 1521 1522 1523 1524 1525 1525 1525 1526 1526 1527 1529 1532 1534 1535 1536 1538 1539 1540 1540 1541 1542 1542 1543 1543
1501 1501 1502 1503 1504 1505 1506 1507 1508 1510 1511 1512 1514 1515 1516 1517 1519 1520 1521 1522 1523 1524 1525 1526 1526 1526 1527 1527 1528 1531 1532 1534 1535 1536 1538 1539 1540 1540 1541 1541 1542 1543 1543
1502 1503 1504 1505 1506 1507 1508 1509 1510 1511 1513 1514 1515 1517 1518 1519 1520 1521 1522 1523 1524 1525 1526 1527 1528 1528 1528 1528 1530 1531 1532 1534 1535 1537 1538 1539 1540 1540 1541 1541 1542 1542 1543
1503 1504 1505 1506 1507 1508 1509 1511 1512 1513 1514 1516 1517 1518 1519 1520 1521 1523 1524 1525 1526 1526 1527 1528 1528 1529 1529 1529 1530 1532 1533 1534 1535 1537 1537 1538 1539 1540 1540 1541 1541 1542 1543
1505 1506 1506 1507 1508 1510 1511 1512 1514 1515 1516 1517 1518 1519 1520 1521 1523 1524 1525 1526 1527 1527 1528 1528 1529 1529 1530 1530 1531 1532 1533 1534 1535 1536 1537 1538 1538 1539 1540 1540 1541 1541 1542
1507 1508 1508 1509 1510 1511 1513 1514 1515 1516 1517 1518 1520 1521 1522 1523 1524 1525 1526 1527 1527 1528 1528 1529 1530 1530 1530 1530 1531 1532 1532 1534 1535 1535 1536 1537 1538 1538 1539 1540 1540 1541 1542
1508 1509 1509 1510 1512 1514 1515 1515 1516 1518 1519 1520 1521 1522 1523 1524 1526 1526 1527 1527 1528 1528 1529 1530 1530 1530 1530 1530 1530 1531 1532 1533 1534 1534 1535 1536 1537 1538 1538 1539 1540 1540 1541
1509 1510 1511 1511 1513 1515 1516 1516 1518 1519 1520 1521 1522 1523 1524 1525 1526 1527 1527 1528 1528 1529 1529 1530 1530 1530 1529 1529 1529 1530 1531 1532 1533 1534 1534 1535 1536 1537 1538 1538 1539 1539 1540
1510 1512 1512 1513 1514 1515 1516 1517 1518 1520 1520 1521 1523 1524 1525 1526 1527 1528 1528 1528 1529 1529 1530 1530 1530 1530 1530 1529 1529 1529 1530 1532 1533 1533 1534 1535 1536 1536 1537 1537 1538 1539 1539
1511 1512 1513 1514 1514 1515 1516 1517 1519 1520 1521 1522 1523 1524 1525 1526 1527 1528 1528 1529 1529 1530 1530 1530 1531 1531 1530 1530 1530 1530 1531 1531 1532 1533 1534 1534 1535 1536 1536 1536 1537 1538 1538
1511 1512 1513 1514 1515 1516 1517 1517 1519 1520 1521 1523 1524 1524 1525 1526 1527 1528 1528 1529 1530 1530 1530 1531 1531 1531 1530 1530 1530 1530 1531 1531 1532 1533 1533 1534 1534 1535 1535 1535 1536 1537 1537
1511 1512 1513 1514 1515 1516 1517 1518 1520 1521 1522 1523 1523 1524 1525 1526 1527 1528 1528 1529 1530 1530 1531 1530 1531 1531 1531 1530 1530 1530 1531 1531 1531 1532 1532 1533 1533 1533 1534 1534 1535 1536 1536
1511 1512 1513 1515 1515 1516 1517 1518 1520 1521 1522 1523 1524 1524 1525 1526 1527 1527 1528 1529 1529 1530 1530 1530 1530 1530 1530 1530 1530 1530 1530 1530 1531 1531 1532 1532 1532 1532 1533 1533 1534 1534 1535
1510 1512 1513 1515 1515 1517 1518 1519 1520 1521 1522 1523 1524 1524 1525 1526 1526 1527 1528 1528 1529 1529 1529 1530 1529 1530 1530 1530 1530 1530 1530 1530 1530 1531 1531 1531 1531 1531 1532 1532 1533 1533 1534
1510 1512 1513 1514 1516 1517 1518 1519 1520 1521 1522 1523 1523 1524 1525 1525 1526 1527 1527 1528 1528 1529 1528 1529 1529 1529 1529 1529 1530 1529 1529 1529 1530 1530 1530 1530 1530 1531 1531 1531 1531 1532 1532
1510 1511 1513 1514 1515 1517 1518 1519 1520 1521 1522 1523 1523 1523 1524 1525 1526 1526 1527 1527 1527 1527 1528 1528 1528 1528 1529 1529 1529 1528 1528 1528 1529 1529 1530 1530 1530 1530 1530 1530 1530 1530 1531
1509 1511 1512 1514 1515 1516 1517 1518 1519 1520 1521 1522 1523 1523 1523 1524 1525 1526 1526 1526 1526 1526 1527 1527 1527 1527 1528 1528 1528 1528 1528 1529 1529 1529 1529 1529 1529 1529 1530 1530 1529 1529 1529
1508 1509 1511 1513 1514 1515 1517 1518 1519 1520 1521 1521 1522 1522 1523 1523 1524 1524 1525 1525 1525 1526 1526 1526 1526 1527 1527 1527 1528 1528 1528 1527 1528 1528 1528 1528 1528 1529 1529 1529 1529 1528 1528
1507 1509 1510 1511 1513 1514 1516 1517 1518 1519 1520 1520 1521 1522 1522 1522 1523 1523 1524 1524 1524 1525 1525 1525 1526 1526 1526 1526 1527 1527 1527 1527 1527 1527 1527 1527 1527 1527 1527 1527 1527 1527 1527
1505 1507 1509 1510 1512 1513 1515 1516 1517 1518 1519 1520 1520 1521 1521 1522 1522 1522 1522 1523 1523 1523 1524 1524 1524 1524 1525 1525 1525 1526 1526 1526 1526 1526 1525 1525 1525 1526 1525 1525 1526 1525 1524
1504 1506 1507 1509 1510 1512 1514 1515 1516 1517 1518 1519 1520 1520 1520 1521 1521 1521 1521 1522 1522 1522 1522 1522 1523 1523 1523 1523 1523 1524 1524 1524 1524 1524 1524 1523 1523 1524 1523 1524 1524 1523 1523